STARLINK-11306, 61254

Orbit data source: Space-Track

STARLINK-11306, 61254 is a payload satellite owned by SpaceX/Seattle (US) in LEO that was launched on Wed, 25 Sep 2024 UTC via an FALCON 9 launch vehicle from the Air Force Western Test Range (AFWTR). Payload-class satellites include a variety of spacecraft equipped with specific instruments for various scientific and technological missions. These include communications satellites like Starlink; space stations such as the ISS; scientific satellites like the Hubble; Earth observation satellites from companies like Planet Labs, Umbra, and HawkEye 360; GPS; miniature CubeSats for education and research; and military/defense satellites.

Loading next visibility...
Identifier
61254, 2024-175M
Orbit
LEO
Last TLE update
1 day ago
Origin
Manufacturer
SpaceX/Seattle
Mission
Operational Commercial Communications
Bus & Motor
STARLINK V2M, Unknown motor
Mass
730 kg wet, ~700 kg dry
Launch date (UTC)
2024-09-25 (7 months ago)
Launch vehicle
FALCON 9
Launch site
Air Force Western Test Range (AFWTR)
Object type
Payload
Rocket body
Debris
Shape & HBR
Box + 2 Pan, 29 m
Radar Cross Section
36.964 m², Large (>1 m²)

Expand to show TLE details & history

TLE from 1 day ago
0 STARLINK-11306
1 61254U 24175M   25128.26173780  .00002685  00000-0  27017-4 0  9991
2 61254  53.1577 122.0507 0001315  74.1452 285.9711 15.69705311 36592
Epoch: 2025-05-08T06:16Z
Definitive object data (Epoch: 2025-05-08T06:16:54.145Z)
Latitude
-0.00003°
Longitude
161.49031°
Altitude
360.411 km
Speed
7.694 km/s
True Right ascension
08h 08m 12s
True Declination
0° 00' 00"
Sunlit
Object was in daylight at TLE epoch
Visualization TLE readout
Latitude
-50.20429°
Longitude
93.1022°
Altitude
377.808 km
Speed
7.682 km/s
Apparent Right ascension
03h 02m 26s
Apparent Declination
-45° 16' 27"
Sunlit
Object is in daylight
Visualization observer readout
Local Sidereal Time
14:33:59
Azimuth
221.985° SW
Elevation
-82.513°
Doppler factor
1
Orbital elements
Apogee altitude
360.887 km
Perigee altitude
359.115 km
Semi-major axis
6,738.138 km
Eccentricity
0.0001315
Inclination
53.1577°
RAAN
122.0507°
Arg. of periapsis
74.1452°
True anomaly
285.95661°
Mean anomaly
285.9711°
Eccentric anomaly
285.96386°
Mean motion
3.92404 °/min
BSTAR
0.000027017
Orbital period
91.74 mins
Loading maneuver chart data...
Loading SW <> Apogee altitude chart data...
Loading historical data...
Loading historical data...
Loading historical data...
Loading historical data...
Loading historical data...
Loading historical data...
Loading historical data...

STARLINK-11306 Visibility forecast

Observer location: undefined°, undefined°

Span
Click to sort rows by Start time (UTC) header in descending order
Start Az.
Max El. time (UTC)
Max El. Az.
Max El.
End time (UTC)
End Az.
4 mins2025-05-10 01:14:09.257Z189.669° SSW2025-05-10 01:16:09.257Z134.058° SE26.007°2025-05-10 01:18:09.257Z77.253° E
|